Regional Weather Roundup
Issued by NWS Wilmington, NC

Home | Current Version | Previous Version | Text Only | Print | Product List | Glossary On
Versions: 1 2 3 4 5 6 7 8 9 10 11 12 13 14 15 16 17 18 19 20 21 22 23 24 25 26 27
000
ASUS42 KILM 181913
RWRILM
RWRILM
REGIONAL HOURLY WEATHER ROUNDUP
NATIONAL WEATHER SERVICE WILMINGTON NC
200 PM EST MON DEC 18 2017

NOTE: "FAIR" INDICATES FEW OR NO CLOUDS BELOW 12,000 FEET WITH NO
SIGNIFICANT WEATHER AND/OR OBSTRUCTIONS TO VISIBILITY.

...............WFO WILMINGTON COUNTY WARNING AREA...............

......COASTAL NC AND SC COUNTIES......

CITY           SKY/WX    TMP DP  RH WIND       PRES   REMARKS
WILMINGTON     SUNNY     69  57  65 W7        30.08F
N MYRTLE BEACH MOSUNNY   68  59  73 SW8       30.09F
MYRTLE BEACH   MOSUNNY   72  60  66 SW9       30.10F

......INLAND NC AND SC COUNTIES.......

CITY           SKY/WX    TMP DP  RH WIND       PRES   REMARKS
LUMBERTON      MOSUNNY   66  51  58 SW10      30.08F
ELIZABETHTOWN  NOT AVBL
WHITEVILLE     CLOUDY    64  55  72 W6        30.09F
FLORENCE       CLOUDY    65  55  70 W8        30.10F
DARLINGTON     MOSUNNY   65  52  62 SW7       30.10F
KINGSTREE      PTSUNNY   70  59  68 S6        30.11S
HARTSVILLE     FAIR      64  50  59 SW8       30.09F
BENNETTSVILLE  FAIR      68  50  52 S7        30.08F
CONWAY         FAIR      68  61  77 CALM      30.10F
GEORGETOWN     FAIR      72  61  68 W7        30.12S
MARION         PTSUNNY   63  55  77 SW5       30.10F

....................REST OF NORTH CAROLINA......................

.........EASTERN NC.........

CITY           SKY/WX    TMP DP  RH WIND       PRES   REMARKS
CAPE HATTERAS  SUNNY     58  39  49 NW6       30.08F
JACKSONVILLE   SUNNY     69  54  58 S6        30.08F
MOREHEAD CITY  PTSUNNY   60  47  61 S7        30.08F
KENANSVILLE    MOSUNNY   66  50  55 W3        30.08F
NEW BERN       SUNNY     65  47  52 W3        30.08F
ELIZABETH CITY SUNNY     62  47  57 W9        30.06F

.........CENTRAL NC.........

CITY           SKY/WX    TMP DP  RH WIND       PRES   REMARKS
RALEIGH DURHAM PTSUNNY   60  43  53 W5        30.08F
ROCKY MOUNT    SUNNY     62  44  51 CALM      30.07F
ROANOKE RAPIDS NOT AVBL
FAYETTEVILLE   SUNNY     67  49  52 SW12      30.08F
HOFFMAN        MOSUNNY   64  46  51 SW7       30.07F

.........WESTERN NC.........

CITY           SKY/WX    TMP DP  RH WIND       PRES   REMARKS
CHARLOTTE      PTSUNNY   61  48  62 SW8       30.08F
GREENSBORO     PTSUNNY   54  46  74 SW5       30.08S
HICKORY        NOT AVBL
BOONE          NOT AVBL
ASHEVILLE      NOT AVBL

.....................REST OF SOUTH CAROLINA.....................

.........EASTERN SC.........

CITY           SKY/WX    TMP DP  RH WIND       PRES   REMARKS
CHARLESTON     PTSUNNY   72  63  73 W9        30.13F
BEAUFORT MCAS  CLOUDY    69  65  86 W7        30.15F
HILTON HEAD    CLOUDY    68  64  88 SW7       30.15F

.........CENTRAL SC.........

CITY           SKY/WX    TMP DP  RH WIND       PRES   REMARKS
COLUMBIA       CLOUDY    71  57  61 W10       30.10F
ORANGEBURG     PTSUNNY   71  58  63 W12       30.12F
SUMTER SHAW    PTSUNNY   67  53  61 W6        30.08F

.........WESTERN SC.........

CITY           SKY/WX    TMP DP  RH WIND       PRES   REMARKS
GREENVILLE     NOT AVBL
ROCK HILL      CLOUDY    63  48  58 W7        30.08F
ANDERSON       MOSUNNY   63  51  65 SW16      30.10F
CLEMSON        NOT AVBL
GREENWOOD      LGT RAIN  65  53  65 SW9       30.11F


...................COASTAL AND OFFSHORE REPORTS..................

................LOCAL PIERS AND NC RESERVE................


STATION/POSITION TIME  SKY/WX   TEMP    WIND        PRES    VSBY
                                AIR SEA DIR/SP/G
                 (UTC)          (F)     (DEG/KT/KT) (MB)    (MI)
JOHNY MRCER PIER 1842            58 57  160/  5/  5 1019.2F
NC RESRV MASNBRO 1745            63     130/  2     1020.0
OCEAN CREST PIER NOT AVBL
SPRINGMAID  PIER 1842                               1022.6F


................COASTAL AND OFFSHORE BUOYS................


STATION/POSITION TIME  SKY/WX   TEMP    WIND        PRES    VSBY
                                AIR SEA DIR/SP/G
                 (UTC)          (F)     (DEG/KT/KT) (MB)    (MI)
DIMNDSHOAL 41025 1900            62 72  290/  8/ 10 1019.2
CAPE LOOKOUT     1900                   170/  6/  6 1019.2F
ONSLOW BAY 41036 NOT AVBL
ONSLOW BAY 41064 1808            63 63  140/  2/  4 1019.6F
ONSLOW BAY 41159 1900               64                N/A
WVE H/P(F/S)=  1/10

MASNBO INL 41110 1859               56                N/A
WVE H/P(F/S)=  1/11

WILM HARBR 41108 1900               58                N/A
WVE H/P(F/S)=  3/ 5

27SE WRITB 41037 1808            61 60  190/  4/  6 1019.7F
FRYING PAN 41013 1900            67 71  250/ 14/ 16 1019.3
SUNST NRSH 41024 1808            57     210/  4/  8 1019.7F
CAPRS NRSH 41029 1808            56 56  230/ 10/ 14 1020.1F
EDISTO     41004 1900            67 73  250/ 16/ 17 1020.1


..........OFFSHORE BUOYS BEYOND 100 NM OFFSHORE...........
.....IN A TRIANGLE---HAT TO BERMUDA TO BAHAMAS TO HAT.....


STATION/POSITION TIME  SKY/WX   TEMP    WIND        PRES    VSBY
                                AIR SEA DIR/SP/G
                 (UTC)          (F)     (DEG/KT/KT) (MB)    (MI)
150E HAT   41001 NOT AVBL
W BERMUDA  41048 1900            71 74  250/ 16/ 19 1021.2
ATLANTIC S 41049 1850            72 77   50/  8/ 12 1022.9R
WVE H/P(F/S)=  7/10 SWL H/P/D(F/S/D)=  7/360/10

E BAHAMAS  41046 1900            77 80   60/ 14/ 17 1020.8
NE BAHAMAS 41047 1900            71      40/  8/ 10 1023.2
120E CANVRL41010 NOT AVBL

END




USA.gov is the U.S. government's official web portal to all federal, state and local government web resources and services.